Home > Weather > Lippstadt > Past weeks

Flag for Germany Past Weather in Lippstadt, North Rhine-Westphalia, Germany — Yesterday and Last 2 Weeks

Now
59 °F

Sunny.


Feels Like: 59 °F
Forecast: 54 / 67 °F
Wind: 5 mph from Southwest

Location: Paderborn / Lippstadt

Current Time: Jun 26, 2016 at 9:13:46 PM

Latest Report: Jun 26, 2016 at 8:50 PM


Visibility: 10 mi

Pressure: 30.04 "Hg

Humidity: 77%

Dew Point: 52 °F

Location of LippstadtLocation

Past Weather in Lippstadt — Graph

°F

Lippstadt Temperature Yesterday

Maximum temperature yesterday: 68 °F (at 12:20 AM)
Minimum temperature yesterday: 55 °F (at 8:20 PM)
Average temperature yesterday: 62 °F

High & Low Weather Summary for the Past Weeks

 TemperatureHumidityPressure
High90 °F (Jun 23, 2:50 PM)100% (Jun 12, 10:20 PM)30.24 "Hg (Jun 12, 10:20 PM)
Low48 °F (Jun 20, 12:50 AM)38% (Jun 23, 2:20 PM)29.47 "Hg (Jun 14, 3:20 PM)
Average62 °F78%29.89 "Hg
* Reported Jun 11 7:20 PM — Jun 26 7:20 PM, Lippstadt, Weather by CustomWeather, © 2016

Note: Actual official high and low records may vary slightly from our data, if they occured in-between our weather recording intervals... More about our weather records

Advertising

Lippstadt Weather History for the Previous 24 Hours

Scroll right to see more
 ConditionsComfort  
Time TempWeatherWind HumidityBarometerVisibility
7:20 PM
Sun, Jun 26
59 °FThundershowers. Passing clouds.6 mph82%30.07 "HgN/A
6:50 PM57 °FRain showers. Scattered clouds.9 mph82%30.07 "HgN/A
6:20 PM63 °FScattered showers. Passing clouds.8 mph68%30.04 "HgN/A
5:50 PM63 °FSprinkles. Passing clouds.12 mph64%30.04 "HgN/A
5:20 PM66 °FScattered showers. Scattered clouds.7 mph52%30.04 "HgN/A
4:50 PM66 °FScattered clouds.7 mph52%30.04 "HgN/A
4:20 PM66 °FScattered clouds.12 mph56%30.04 "HgN/A
3:50 PM64 °FScattered clouds.10 mph56%30.04 "HgN/A
3:20 PM64 °FScattered clouds.8 mph56%30.04 "HgN/A
2:50 PM66 °FScattered clouds.10 mph52%30.04 "HgN/A
2:20 PM64 °FScattered clouds.8 mph56%30.04 "HgN/A
1:50 PM63 °FScattered clouds.8 mph64%30.04 "HgN/A
1:20 PM64 °FScattered clouds.10 mph56%30.07 "HgN/A
12:50 PM63 °FScattered clouds.14 mph56%30.07 "HgN/A
12:20 PM63 °FScattered clouds.14 mph59%30.07 "HgN/A
11:50 AM64 °FScattered clouds.12 mph60%30.07 "HgN/A
11:20 AM63 °FScattered clouds.16 mph64%30.04 "HgN/A
10:50 AM63 °FScattered clouds.12 mph64%30.04 "HgN/A
10:20 AM63 °FScattered clouds.13 mph68%30.04 "HgN/A
9:50 AM61 °FScattered clouds.13 mph68%30.04 "HgN/A
9:20 AM59 °FScattered clouds.12 mph72%30.04 "HgN/A
8:50 AM59 °FPassing clouds.9 mph77%30.04 "HgN/A
8:20 AM59 °FSunny.9 mph72%30.04 "Hg10 mi
7:50 AM57 °FSunny.8 mph82%30.04 "Hg10 mi
7:20 AM55 °FSunny.7 mph88%30.04 "Hg10 mi
6:50 AM54 °FPassing clouds.8 mph94%30.04 "Hg6 mi
6:20 AM54 °FPassing clouds.6 mph88%30.04 "Hg6 mi
5:50 AM54 °FPassing clouds.9 mph88%30.04 "Hg6 mi
5:20 AM54 °FPassing clouds.8 mph88%30.01 "HgN/A
4:50 AM54 °FPassing clouds.8 mph88%30.01 "HgN/A
3:50 AM54 °FPassing clouds.7 mph88%30.01 "HgN/A
3:20 AM54 °FPassing clouds.8 mph88%30.01 "HgN/A
2:50 AM54 °FPassing clouds.6 mph88%30.01 "HgN/A
2:20 AM52 °FPassing clouds.6 mph94%30.01 "HgN/A
1:50 AM54 °FPartly cloudy.5 mph94%30.01 "Hg5 mi
1:20 AM57 °FPartly cloudy.9 mph88%30.01 "Hg5 mi
12:50 AM57 °FPartly cloudy.9 mph94%30.01 "Hg5 mi
12:20 AM57 °FPassing clouds.6 mph94%30.04 "Hg4 mi
11:50 PM
Sat, Jun 25
57 °FPassing clouds.6 mph94%30.04 "HgN/A
11:20 PM57 °FPassing clouds.9 mph94%30.01 "HgN/A
10:50 PM57 °FPartly cloudy.3 mph94%30.01 "HgN/A
10:20 PM57 °FDrizzle. More clouds than sun.3 mph94%29.98 "HgN/A
9:50 PM55 °FDrizzle. More clouds than sun.6 mph100%29.98 "Hg5 mi
9:20 PM55 °FLight rain. Partly sunny.6 mph100%29.98 "HgN/A
Weather by CustomWeather, © 2016

See weather overviewHow to use our weather pages